Year,Month,Day,Hour,Minute,Value (Times are PST for temperature in C)
2013,10,15,00,00,6.40
2013,10,15,00,01,6.40
2013,10,15,00,02,6.40
2013,10,15,00,03,6.40
2013,10,15,00,04,6.40
2013,10,15,00,05,6.40
2013,10,15,00,06,6.40
2013,10,15,00,07,6.40
2013,10,15,00,08,6.40
2013,10,15,00,09,6.40
2013,10,15,00,10,6.40
2013,10,15,00,11,6.40
2013,10,15,00,12,6.40
2013,10,15,00,13,6.30
2013,10,15,00,16,6.30
2013,10,15,00,17,6.20
2013,10,15,00,18,6.20
2013,10,15,00,19,6.20
2013,10,15,00,20,6.20
2013,10,15,00,21,6.20
2013,10,15,00,22,6.20
2013,10,15,00,23,6.10
2013,10,15,00,24,6.10
2013,10,15,00,25,6.10
2013,10,15,00,26,6.00
2013,10,15,00,27,6.00
2013,10,15,00,28,6.00
2013,10,15,00,29,6.10
2013,10,15,00,30,6.10
2013,10,15,00,31,6.10
2013,10,15,00,32,6.20
2013,10,15,00,33,6.20
2013,10,15,00,34,6.10
2013,10,15,00,35,6.10
2013,10,15,00,36,6.10
2013,10,15,00,37,6.10
2013,10,15,00,38,6.10
2013,10,15,00,39,6.10
2013,10,15,00,40,6.10
2013,10,15,00,41,6.10
2013,10,15,00,42,6.10
2013,10,15,00,43,6.10
2013,10,15,00,44,6.10
2013,10,15,00,45,6.10
2013,10,15,00,46,6.10
2013,10,15,00,47,6.10
2013,10,15,00,48,6.10
2013,10,15,00,49,6.10
2013,10,15,00,50,6.10
2013,10,15,00,51,6.00
2013,10,15,00,52,6.00
2013,10,15,00,53,6.00
2013,10,15,00,54,6.00
2013,10,15,00,55,6.00
2013,10,15,00,56,6.00
2013,10,15,00,57,6.00
2013,10,15,00,58,6.00
2013,10,15,00,59,6.00
2013,10,15,01,00,6.00
2013,10,15,01,01,6.00
2013,10,15,01,02,6.00
2013,10,15,01,03,6.00
2013,10,15,01,04,6.00
2013,10,15,01,05,6.00
2013,10,15,01,06,6.00
2013,10,15,01,07,6.00
2013,10,15,01,08,6.00
2013,10,15,01,09,6.10
2013,10,15,01,10,6.10
2013,10,15,01,11,6.10
2013,10,15,01,12,6.10
2013,10,15,01,13,6.10
2013,10,15,01,14,6.00
2013,10,15,01,15,6.00
2013,10,15,01,16,6.00
2013,10,15,01,17,6.00
2013,10,15,01,18,6.00
2013,10,15,01,19,6.00
2013,10,15,01,20,6.00
2013,10,15,01,21,5.90
2013,10,15,01,22,5.90
2013,10,15,01,23,5.90
2013,10,15,01,24,5.90
2013,10,15,01,25,5.90
2013,10,15,01,26,5.90
2013,10,15,01,27,5.90
2013,10,15,01,28,5.90
2013,10,15,01,29,5.90
2013,10,15,01,30,5.80
2013,10,15,01,31,5.80
2013,10,15,01,32,5.80
2013,10,15,01,33,5.80
2013,10,15,01,34,5.80
2013,10,15,01,35,5.80
2013,10,15,01,36,5.80
2013,10,15,01,37,5.80
2013,10,15,01,38,5.80
2013,10,15,01,39,5.80
2013,10,15,01,40,5.70
2013,10,15,01,41,5.70
2013,10,15,01,42,5.70
2013,10,15,01,43,5.70
2013,10,15,01,44,5.70
2013,10,15,01,45,5.70
2013,10,15,01,46,5.70
2013,10,15,01,47,5.70
2013,10,15,01,48,5.70
2013,10,15,01,49,5.70
2013,10,15,01,50,5.70
2013,10,15,01,51,5.70
2013,10,15,01,52,5.70
2013,10,15,01,53,5.70
2013,10,15,01,54,5.70
2013,10,15,01,55,5.70
2013,10,15,01,56,5.70
2013,10,15,01,57,5.70
2013,10,15,01,58,5.70
2013,10,15,01,59,5.70
2013,10,15,02,00,5.70
2013,10,15,02,01,5.70
2013,10,15,02,02,5.70
2013,10,15,02,03,5.80
2013,10,15,02,04,5.80
2013,10,15,02,05,5.80
2013,10,15,02,06,5.80
2013,10,15,02,07,5.70
2013,10,15,02,08,5.70
2013,10,15,02,09,5.70
2013,10,15,02,10,5.70
2013,10,15,02,11,5.70
2013,10,15,02,12,5.70
2013,10,15,02,13,5.70
2013,10,15,02,14,5.70
2013,10,15,02,15,5.70
2013,10,15,02,16,5.70
2013,10,15,02,17,5.70
2013,10,15,02,18,5.70
2013,10,15,02,19,5.70
2013,10,15,02,20,5.70
2013,10,15,02,21,5.70
2013,10,15,02,22,5.60
2013,10,15,02,23,5.60
2013,10,15,02,24,5.60
2013,10,15,02,25,5.60
2013,10,15,02,26,5.60
2013,10,15,02,27,5.60
2013,10,15,02,28,5.60
2013,10,15,02,29,5.60
2013,10,15,02,30,5.60
2013,10,15,02,31,5.60
2013,10,15,02,32,5.60
2013,10,15,02,33,5.70
2013,10,15,02,34,5.70
2013,10,15,02,35,5.70
2013,10,15,02,36,5.70
2013,10,15,02,37,5.70
2013,10,15,02,38,5.70
2013,10,15,02,39,5.70
2013,10,15,02,40,5.70
2013,10,15,02,41,5.60
2013,10,15,02,42,5.60
2013,10,15,02,43,5.60
2013,10,15,02,44,5.60
2013,10,15,02,45,5.60
2013,10,15,02,46,5.60
2013,10,15,02,47,5.50
2013,10,15,02,48,5.50
2013,10,15,02,49,5.50
2013,10,15,02,50,5.50
2013,10,15,02,51,5.50
2013,10,15,02,52,5.50
2013,10,15,02,53,5.50
2013,10,15,02,54,5.50
2013,10,15,02,55,5.50
2013,10,15,02,56,5.50
2013,10,15,02,57,5.60
2013,10,15,02,58,5.60
2013,10,15,02,59,5.60
2013,10,15,03,00,5.60
2013,10,15,03,01,5.60
2013,10,15,03,02,5.60
2013,10,15,03,03,5.60
2013,10,15,03,04,5.60
2013,10,15,03,05,5.60
2013,10,15,03,06,5.60
2013,10,15,03,07,5.60
2013,10,15,03,08,5.60
2013,10,15,03,09,5.60
2013,10,15,03,10,5.60
2013,10,15,03,11,5.60
2013,10,15,03,12,5.60
2013,10,15,03,13,5.60
2013,10,15,03,14,5.60
2013,10,15,03,15,5.50
2013,10,15,03,16,5.50
2013,10,15,03,17,5.50
2013,10,15,03,18,5.50
2013,10,15,03,19,5.50
2013,10,15,03,20,5.50
2013,10,15,03,21,5.50
2013,10,15,03,22,5.50
2013,10,15,03,23,5.50
2013,10,15,03,24,5.50
2013,10,15,03,25,5.50
2013,10,15,03,26,5.50
2013,10,15,03,27,5.50
2013,10,15,03,28,5.50
2013,10,15,03,29,5.50
2013,10,15,03,30,5.60
2013,10,15,03,31,5.60
2013,10,15,03,32,5.50
2013,10,15,03,33,5.50
2013,10,15,03,34,5.50
2013,10,15,03,35,5.50
2013,10,15,03,36,5.50
2013,10,15,03,37,5.50
2013,10,15,03,38,5.50
2013,10,15,03,39,5.40
2013,10,15,03,40,5.40
2013,10,15,03,41,5.40
2013,10,15,03,42,5.40
2013,10,15,03,43,5.40
2013,10,15,03,44,5.40
2013,10,15,03,45,5.40
2013,10,15,03,46,5.40
2013,10,15,03,47,5.40
2013,10,15,03,48,5.40
2013,10,15,03,49,5.50
2013,10,15,03,50,5.50
2013,10,15,03,51,5.60
2013,10,15,03,52,5.60
2013,10,15,03,53,5.70
2013,10,15,03,54,5.70
2013,10,15,03,55,5.80
2013,10,15,03,56,5.80
2013,10,15,03,57,5.90
2013,10,15,03,58,5.90
2013,10,15,03,59,5.90
2013,10,15,04,00,5.90
2013,10,15,04,01,5.80
2013,10,15,04,02,5.80
2013,10,15,04,03,5.80
2013,10,15,04,04,5.70
2013,10,15,04,05,5.70
2013,10,15,04,06,5.70
2013,10,15,04,07,5.70
2013,10,15,04,08,5.70
2013,10,15,04,09,5.60
2013,10,15,04,10,5.60
2013,10,15,04,11,5.60
2013,10,15,04,12,5.50
2013,10,15,04,13,5.50
2013,10,15,04,14,5.50
2013,10,15,04,15,5.40
2013,10,15,04,16,5.40
2013,10,15,04,17,5.30
2013,10,15,04,18,5.30
2013,10,15,04,19,5.30
2013,10,15,04,20,5.30
2013,10,15,04,21,5.30
2013,10,15,04,22,5.30
2013,10,15,04,23,5.20
2013,10,15,04,24,5.20
2013,10,15,04,25,5.20
2013,10,15,04,26,5.20
2013,10,15,04,27,5.10
2013,10,15,04,28,5.10
2013,10,15,04,29,5.10
2013,10,15,04,30,5.10
2013,10,15,04,31,5.10
2013,10,15,04,32,5.10
2013,10,15,04,33,5.10
2013,10,15,04,34,5.10
2013,10,15,04,35,5.10
2013,10,15,04,36,5.10
2013,10,15,04,37,5.10
2013,10,15,04,38,5.10
2013,10,15,04,39,5.10
2013,10,15,04,40,5.20
2013,10,15,04,41,5.20
2013,10,15,04,42,5.20
2013,10,15,04,43,5.20
2013,10,15,04,44,5.20
2013,10,15,04,45,5.20
2013,10,15,04,46,5.20
2013,10,15,04,47,5.20
2013,10,15,04,48,5.10
2013,10,15,04,49,5.10
2013,10,15,04,50,5.10
2013,10,15,04,51,5.10
2013,10,15,04,52,5.10
2013,10,15,04,53,5.10
2013,10,15,04,54,5.10
2013,10,15,04,55,5.10
2013,10,15,04,56,5.10
2013,10,15,04,57,5.10
2013,10,15,04,58,5.10
2013,10,15,04,59,5.10
2013,10,15,05,00,5.00
2013,10,15,05,01,4.90
2013,10,15,05,02,4.90
2013,10,15,05,03,4.90
2013,10,15,05,04,4.90
2013,10,15,05,05,4.90
2013,10,15,05,06,4.90
2013,10,15,05,07,4.90
2013,10,15,05,08,4.90
2013,10,15,05,09,4.90
2013,10,15,05,10,4.90
2013,10,15,05,11,4.90
2013,10,15,05,12,4.90
2013,10,15,05,13,4.90
2013,10,15,05,14,4.90
2013,10,15,05,15,4.90
2013,10,15,05,16,4.90
2013,10,15,05,17,4.90
2013,10,15,05,18,4.90
2013,10,15,05,19,4.90
2013,10,15,05,20,4.90
2013,10,15,05,21,4.90
2013,10,15,05,22,4.90
2013,10,15,05,23,4.90
2013,10,15,05,24,4.90
2013,10,15,05,25,4.90
2013,10,15,05,26,4.90
2013,10,15,05,27,4.90
2013,10,15,05,28,4.90
2013,10,15,05,29,4.90
2013,10,15,05,30,4.90
2013,10,15,05,31,4.90
2013,10,15,05,32,4.90
2013,10,15,05,33,4.90
2013,10,15,05,34,4.90
2013,10,15,05,35,4.90
2013,10,15,05,36,4.90
2013,10,15,05,37,4.90
2013,10,15,05,38,4.90
2013,10,15,05,39,4.90
2013,10,15,05,40,4.90
2013,10,15,05,41,4.90
2013,10,15,05,42,5.00
2013,10,15,05,43,5.10
2013,10,15,05,44,5.10
2013,10,15,05,45,5.10
2013,10,15,05,46,5.10
2013,10,15,05,47,5.10
2013,10,15,05,48,5.10
2013,10,15,05,49,5.10
2013,10,15,05,50,5.10
2013,10,15,05,51,5.10
2013,10,15,05,52,5.10
2013,10,15,05,53,5.10
2013,10,15,05,54,5.10
2013,10,15,05,55,5.10
2013,10,15,05,56,5.10
2013,10,15,05,57,5.10
2013,10,15,05,58,5.10
2013,10,15,05,59,5.10
2013,10,15,06,00,5.10
2013,10,15,06,01,5.10
2013,10,15,06,02,5.10
2013,10,15,06,03,5.10
2013,10,15,06,04,5.10
2013,10,15,06,05,5.10
2013,10,15,06,06,5.20
2013,10,15,06,07,5.20
2013,10,15,06,08,5.20
2013,10,15,06,09,5.30
2013,10,15,06,10,5.30
2013,10,15,06,11,5.30
2013,10,15,06,12,5.30
2013,10,15,06,13,5.30
2013,10,15,06,14,5.30
2013,10,15,06,15,5.30
2013,10,15,06,16,5.30
2013,10,15,06,17,5.30
2013,10,15,06,18,5.30
2013,10,15,06,19,5.30
2013,10,15,06,20,5.30
2013,10,15,06,21,5.30
2013,10,15,06,22,5.30
2013,10,15,06,23,5.30
2013,10,15,06,24,5.30
2013,10,15,06,25,5.30
2013,10,15,06,26,5.30
2013,10,15,06,27,5.30
2013,10,15,06,28,5.30
2013,10,15,06,29,5.30
2013,10,15,06,30,5.30
2013,10,15,06,31,5.30
2013,10,15,06,32,5.30
2013,10,15,06,33,5.30
2013,10,15,06,34,5.30
2013,10,15,06,35,5.30
2013,10,15,06,36,5.30
2013,10,15,06,37,5.30
2013,10,15,06,38,5.40
2013,10,15,06,39,5.40
2013,10,15,06,40,5.40
2013,10,15,06,41,5.40
2013,10,15,06,42,5.40
2013,10,15,06,43,5.50
2013,10,15,06,44,5.50
2013,10,15,06,45,5.50
2013,10,15,06,46,5.50
2013,10,15,06,47,5.50
2013,10,15,06,48,5.60
2013,10,15,06,49,5.60
2013,10,15,06,50,5.60
2013,10,15,06,51,5.60
2013,10,15,06,52,5.60
2013,10,15,06,53,5.60
2013,10,15,06,54,5.60
2013,10,15,06,55,5.60
2013,10,15,06,56,5.60
2013,10,15,06,57,5.60
2013,10,15,06,58,5.60
2013,10,15,06,59,5.60
2013,10,15,07,00,5.60
2013,10,15,07,01,5.60
2013,10,15,07,02,5.60
2013,10,15,07,03,5.60
2013,10,15,07,04,5.60
2013,10,15,07,05,5.60
2013,10,15,07,06,5.70
2013,10,15,07,07,5.70
2013,10,15,07,08,5.70
2013,10,15,07,09,5.70
2013,10,15,07,10,5.70
2013,10,15,07,11,5.70
2013,10,15,07,12,5.70
2013,10,15,07,13,5.70
2013,10,15,07,14,5.70
2013,10,15,07,15,5.70
2013,10,15,07,16,5.60
2013,10,15,07,17,5.60
2013,10,15,07,18,5.60
2013,10,15,07,19,5.60
2013,10,15,07,20,5.60
2013,10,15,07,21,5.60
2013,10,15,07,22,5.60
2013,10,15,07,23,5.60
2013,10,15,07,24,5.60
2013,10,15,07,25,5.60
2013,10,15,07,26,5.50
2013,10,15,07,27,5.50
2013,10,15,07,28,5.50
2013,10,15,07,29,5.50
2013,10,15,07,30,5.50
2013,10,15,07,31,5.50
2013,10,15,07,32,5.40
2013,10,15,07,33,5.40
2013,10,15,07,34,5.40
2013,10,15,07,35,5.40
2013,10,15,07,36,5.30
2013,10,15,07,37,5.30
2013,10,15,07,38,5.30
2013,10,15,07,39,5.30
2013,10,15,07,40,5.30
2013,10,15,07,41,5.30
2013,10,15,07,42,5.30
2013,10,15,07,43,5.30
2013,10,15,07,44,5.30
2013,10,15,07,45,5.30
2013,10,15,07,46,5.30
2013,10,15,07,47,5.30
2013,10,15,07,48,5.30
2013,10,15,07,49,5.30
2013,10,15,07,50,5.30
2013,10,15,07,51,5.30
2013,10,15,07,52,5.30
2013,10,15,07,53,5.30
2013,10,15,07,54,5.30
2013,10,15,07,55,5.30
2013,10,15,07,56,5.30
2013,10,15,07,57,5.30
2013,10,15,07,58,5.30
2013,10,15,07,59,5.30
2013,10,15,08,00,5.30
2013,10,15,08,01,5.30
2013,10,15,08,02,5.40
2013,10,15,08,03,5.40
2013,10,15,08,04,5.40
2013,10,15,08,05,5.40
2013,10,15,08,06,5.40
2013,10,15,08,07,5.40
2013,10,15,08,08,5.40
2013,10,15,08,09,5.40
2013,10,15,08,10,5.40
2013,10,15,08,11,5.40
2013,10,15,08,12,5.40
2013,10,15,08,13,5.40
2013,10,15,08,14,5.40
2013,10,15,08,15,5.40
2013,10,15,08,16,5.40
2013,10,15,08,17,5.40
2013,10,15,08,18,5.40
2013,10,15,08,19,5.40
2013,10,15,08,20,5.50
2013,10,15,08,21,5.50
2013,10,15,08,22,5.50
2013,10,15,08,23,5.50
2013,10,15,08,24,5.50
2013,10,15,08,25,5.50
2013,10,15,08,26,5.60
2013,10,15,08,27,5.60
2013,10,15,08,28,5.60
2013,10,15,08,29,5.70
2013,10,15,08,30,5.70
2013,10,15,08,31,5.70
2013,10,15,08,32,5.80
2013,10,15,08,33,5.90
2013,10,15,08,34,6.00
2013,10,15,08,35,6.10
2013,10,15,08,36,6.20
2013,10,15,08,37,6.20
2013,10,15,08,38,6.30
2013,10,15,08,39,6.40
2013,10,15,08,40,6.40
2013,10,15,08,41,6.40
2013,10,15,08,42,6.40
2013,10,15,08,43,6.50
2013,10,15,08,44,6.60
2013,10,15,08,45,6.70
2013,10,15,08,46,6.70
2013,10,15,08,47,6.80
2013,10,15,08,48,6.80
2013,10,15,08,49,6.90
2013,10,15,08,50,6.90
2013,10,15,08,51,6.90
2013,10,15,08,52,7.00
2013,10,15,08,53,7.00
2013,10,15,08,54,7.00
2013,10,15,08,55,7.10
2013,10,15,08,56,7.20
2013,10,15,08,57,7.20
2013,10,15,08,58,7.30
2013,10,15,08,59,7.30
2013,10,15,09,00,7.40
2013,10,15,09,01,7.50
2013,10,15,09,02,7.60
2013,10,15,09,03,7.70
2013,10,15,09,04,7.70
2013,10,15,09,05,7.80
2013,10,15,09,06,7.80
2013,10,15,09,07,7.90
2013,10,15,09,08,8.00
2013,10,15,09,09,8.00
2013,10,15,09,10,8.10
2013,10,15,09,11,8.20
2013,10,15,09,12,8.30
2013,10,15,09,13,8.40
2013,10,15,09,14,8.50
2013,10,15,09,15,8.70
2013,10,15,09,16,8.70
2013,10,15,09,17,8.80
2013,10,15,09,18,8.80
2013,10,15,09,19,8.90
2013,10,15,09,20,9.00
2013,10,15,09,21,9.00
2013,10,15,09,22,9.10
2013,10,15,09,23,9.10
2013,10,15,09,24,9.10
2013,10,15,09,25,9.20
2013,10,15,09,26,9.20
2013,10,15,09,27,9.20
2013,10,15,09,28,9.20
2013,10,15,09,29,9.20
2013,10,15,09,30,9.20
2013,10,15,09,31,9.30
2013,10,15,09,32,9.40
2013,10,15,09,33,9.50
2013,10,15,09,34,9.60
2013,10,15,09,35,9.70
2013,10,15,09,36,9.80
2013,10,15,09,37,9.90
2013,10,15,09,38,10.00
2013,10,15,09,39,10.10
2013,10,15,09,40,10.10
2013,10,15,09,41,10.20
2013,10,15,09,42,10.30
2013,10,15,09,43,10.40
2013,10,15,09,44,10.50
2013,10,15,09,45,10.60
2013,10,15,09,46,10.70
2013,10,15,09,47,10.80
2013,10,15,09,48,10.90
2013,10,15,09,49,11.00
2013,10,15,09,50,11.10
2013,10,15,09,51,11.20
2013,10,15,09,52,11.30
2013,10,15,09,53,11.40
2013,10,15,09,54,11.50
2013,10,15,09,55,11.60
2013,10,15,09,56,11.70
2013,10,15,09,57,11.80
2013,10,15,09,58,11.80
2013,10,15,09,59,11.80
2013,10,15,10,00,11.90
2013,10,15,10,01,11.90
2013,10,15,10,02,12.00
2013,10,15,10,03,12.10
2013,10,15,10,04,12.10
2013,10,15,10,05,12.10
2013,10,15,10,06,12.20
2013,10,15,10,07,12.20
2013,10,15,10,08,12.30
2013,10,15,10,09,12.30
2013,10,15,10,10,12.40
2013,10,15,10,11,12.40
2013,10,15,10,12,12.40
2013,10,15,10,13,12.30
2013,10,15,10,14,12.20
2013,10,15,10,15,12.20
2013,10,15,10,16,12.20
2013,10,15,10,17,12.10
2013,10,15,10,18,12.00
2013,10,15,10,19,12.00
2013,10,15,10,20,12.00
2013,10,15,10,21,12.10
2013,10,15,10,22,12.10
2013,10,15,10,23,12.20
2013,10,15,10,24,12.20
2013,10,15,10,25,12.10
2013,10,15,10,26,12.20
2013,10,15,10,27,12.20
2013,10,15,10,28,12.20
2013,10,15,10,29,12.20
2013,10,15,10,30,12.30
2013,10,15,10,31,12.30
2013,10,15,10,32,12.30
2013,10,15,10,33,12.30
2013,10,15,10,34,12.30
2013,10,15,10,35,12.40
2013,10,15,10,36,12.30
2013,10,15,10,37,12.40
2013,10,15,10,38,12.40
2013,10,15,10,39,12.50
2013,10,15,10,40,12.60
2013,10,15,10,41,12.60
2013,10,15,10,42,12.70
2013,10,15,10,43,12.70
2013,10,15,10,44,12.80
2013,10,15,10,45,12.80
2013,10,15,10,46,12.80
2013,10,15,10,47,12.80
2013,10,15,10,48,12.80
2013,10,15,10,49,12.80
2013,10,15,10,50,12.90
2013,10,15,10,51,12.90
2013,10,15,10,52,13.00
2013,10,15,10,53,13.00
2013,10,15,10,54,13.00
2013,10,15,10,55,13.10
2013,10,15,10,56,13.20
2013,10,15,10,57,13.20
2013,10,15,10,58,13.30
2013,10,15,10,59,13.30
2013,10,15,11,00,13.30
2013,10,15,11,01,13.30
2013,10,15,11,02,13.30
2013,10,15,11,03,13.20
2013,10,15,11,04,13.30
2013,10,15,11,05,13.30
2013,10,15,11,06,13.30
2013,10,15,11,07,13.30
2013,10,15,11,08,13.30
2013,10,15,11,09,13.30
2013,10,15,11,10,13.30
2013,10,15,11,11,13.10
2013,10,15,11,12,13.00
2013,10,15,11,13,12.90
2013,10,15,11,14,12.90
2013,10,15,11,15,12.90
2013,10,15,11,16,12.90
2013,10,15,11,17,12.90
2013,10,15,11,18,13.00
2013,10,15,11,19,13.00
2013,10,15,11,20,13.10
2013,10,15,11,21,13.20
2013,10,15,11,22,13.30
2013,10,15,11,23,13.30
2013,10,15,11,24,13.40
2013,10,15,11,25,13.40
2013,10,15,11,26,13.50
2013,10,15,11,27,13.50
2013,10,15,11,28,13.50
2013,10,15,11,29,13.60
2013,10,15,11,30,13.70
2013,10,15,11,31,13.70
2013,10,15,11,32,13.70
2013,10,15,11,33,13.70
2013,10,15,11,34,13.70
2013,10,15,11,35,13.70
2013,10,15,11,36,13.70
2013,10,15,11,37,13.70
2013,10,15,11,38,13.70
2013,10,15,11,39,13.70
2013,10,15,11,40,13.70
2013,10,15,11,41,13.70
2013,10,15,11,42,13.70
2013,10,15,11,43,13.60
2013,10,15,11,44,13.50
2013,10,15,11,45,13.50
2013,10,15,11,46,13.50
2013,10,15,11,47,13.40
2013,10,15,11,48,13.30
2013,10,15,11,49,13.30
2013,10,15,11,50,13.30
2013,10,15,11,51,13.20
2013,10,15,11,52,13.20
2013,10,15,11,53,13.20
2013,10,15,11,54,13.20
2013,10,15,11,55,13.20
2013,10,15,11,56,13.30
2013,10,15,11,57,13.30
2013,10,15,11,58,13.30
2013,10,15,11,59,13.40
2013,10,15,12,00,13.40
2013,10,15,12,01,13.40
2013,10,15,12,02,13.40
2013,10,15,12,03,13.40
2013,10,15,12,04,13.30
2013,10,15,12,05,13.30
2013,10,15,12,06,13.40
2013,10,15,12,07,13.40
2013,10,15,12,08,13.50
2013,10,15,12,09,13.50
2013,10,15,12,10,13.50
2013,10,15,12,11,13.50
2013,10,15,12,12,13.40
2013,10,15,12,13,13.40
2013,10,15,12,14,13.30
2013,10,15,12,15,13.30
2013,10,15,12,16,13.30
2013,10,15,12,17,13.20
2013,10,15,12,18,13.10
2013,10,15,12,19,13.10
2013,10,15,12,20,13.00
2013,10,15,12,21,13.00
2013,10,15,12,22,13.10
2013,10,15,12,23,13.10
2013,10,15,12,24,13.00
2013,10,15,12,25,13.00
2013,10,15,12,26,13.00
2013,10,15,12,27,13.00
2013,10,15,12,28,13.00
2013,10,15,12,29,13.00
2013,10,15,12,30,13.10
2013,10,15,12,31,13.10
2013,10,15,12,32,13.10
2013,10,15,12,33,13.20
2013,10,15,12,34,13.10
2013,10,15,12,35,13.00
2013,10,15,12,36,12.90
2013,10,15,12,37,12.90
2013,10,15,12,38,12.80
2013,10,15,12,39,12.80
2013,10,15,12,40,12.80
2013,10,15,12,41,12.80
2013,10,15,12,42,12.70
2013,10,15,12,43,12.60
2013,10,15,12,44,12.50
2013,10,15,12,45,12.40
2013,10,15,12,46,12.30
2013,10,15,12,47,12.30
2013,10,15,12,48,12.30
2013,10,15,12,49,12.30
2013,10,15,12,50,12.30
2013,10,15,12,51,12.30
2013,10,15,12,52,12.30
2013,10,15,12,53,12.40
2013,10,15,12,54,12.40
2013,10,15,12,55,12.40
2013,10,15,12,56,12.50
2013,10,15,12,57,12.50
2013,10,15,12,58,12.50
2013,10,15,12,59,12.60
2013,10,15,13,00,12.60
2013,10,15,13,01,12.70
2013,10,15,13,02,12.80
2013,10,15,13,03,12.80
2013,10,15,13,04,12.80
2013,10,15,13,05,12.70
2013,10,15,13,06,12.70
2013,10,15,13,07,12.70
2013,10,15,13,08,12.60
2013,10,15,13,09,12.60
2013,10,15,13,10,12.70
2013,10,15,13,11,12.70
2013,10,15,13,12,12.70
2013,10,15,13,13,12.70
2013,10,15,13,14,12.70
2013,10,15,13,15,12.70
2013,10,15,13,16,12.80
2013,10,15,13,17,12.80
2013,10,15,13,18,12.80
2013,10,15,13,19,12.80
2013,10,15,13,20,12.90
2013,10,15,13,21,12.90
2013,10,15,13,22,12.80
2013,10,15,13,23,12.80
2013,10,15,13,24,12.80
2013,10,15,13,25,12.90
2013,10,15,13,26,12.90
2013,10,15,13,27,13.00
2013,10,15,13,28,13.10
2013,10,15,13,29,13.10
2013,10,15,13,30,13.20
2013,10,15,13,31,13.20
2013,10,15,13,32,13.30
2013,10,15,13,33,13.30
2013,10,15,13,34,13.40
2013,10,15,13,35,13.50
2013,10,15,13,36,13.50
2013,10,15,13,37,13.60
2013,10,15,13,38,13.70
2013,10,15,13,39,13.70
2013,10,15,13,40,13.70
2013,10,15,13,41,13.80
2013,10,15,13,42,13.80
2013,10,15,13,43,13.90
2013,10,15,13,44,14.00
2013,10,15,13,45,14.10
2013,10,15,13,46,14.10
2013,10,15,13,47,14.20
2013,10,15,13,48,14.20
2013,10,15,13,49,14.20
2013,10,15,13,50,14.10
2013,10,15,13,51,14.00
2013,10,15,13,52,14.00
2013,10,15,13,53,14.00
2013,10,15,13,54,14.00
2013,10,15,13,55,13.90
2013,10,15,13,56,13.80
2013,10,15,13,57,13.80
2013,10,15,13,58,13.80
2013,10,15,13,59,13.70
2013,10,15,14,00,13.80
2013,10,15,14,01,13.80
2013,10,15,14,02,13.70
2013,10,15,14,03,13.70
2013,10,15,14,04,13.70
2013,10,15,14,05,13.70
2013,10,15,14,06,13.70
2013,10,15,14,07,13.80
2013,10,15,14,08,13.80
2013,10,15,14,09,13.90
2013,10,15,14,10,13.90
2013,10,15,14,11,13.90
2013,10,15,14,12,14.00
2013,10,15,14,13,14.00
2013,10,15,14,14,14.00
2013,10,15,14,15,14.00
2013,10,15,14,16,14.00
2013,10,15,14,17,14.00
2013,10,15,14,18,14.00
2013,10,15,14,19,14.00
2013,10,15,14,20,14.00
2013,10,15,14,21,14.00
2013,10,15,14,22,14.00
2013,10,15,14,23,14.00
2013,10,15,14,24,14.00
2013,10,15,14,25,14.00
2013,10,15,14,26,14.00
2013,10,15,14,27,14.10
2013,10,15,14,28,14.20
2013,10,15,14,29,14.20
2013,10,15,14,30,14.30
2013,10,15,14,31,14.40
2013,10,15,14,32,14.50
2013,10,15,14,33,14.60
2013,10,15,14,34,14.70
2013,10,15,14,35,14.70
2013,10,15,14,36,14.70
2013,10,15,14,37,14.60
2013,10,15,14,38,14.50
2013,10,15,14,39,14.50
2013,10,15,14,40,14.50
2013,10,15,14,41,14.60
2013,10,15,14,42,14.70
2013,10,15,14,43,14.80
2013,10,15,14,44,14.90
2013,10,15,14,45,14.90
2013,10,15,14,46,15.00
2013,10,15,14,47,15.00
2013,10,15,14,48,15.00
2013,10,15,14,49,14.90
2013,10,15,14,50,14.80
2013,10,15,14,51,14.80
2013,10,15,14,52,14.70
2013,10,15,14,53,14.60
2013,10,15,14,54,14.50
2013,10,15,14,55,14.50
2013,10,15,14,56,14.40
2013,10,15,14,57,14.40
2013,10,15,14,58,14.30
2013,10,15,14,59,14.30
2013,10,15,15,00,14.30
2013,10,15,15,01,14.30
2013,10,15,15,02,14.40
2013,10,15,15,03,14.30
2013,10,15,15,04,14.30
2013,10,15,15,05,14.30
2013,10,15,15,06,14.20
2013,10,15,15,07,14.20
2013,10,15,15,08,14.20
2013,10,15,15,09,14.10
2013,10,15,15,10,14.10
2013,10,15,15,11,14.00
2013,10,15,15,12,13.90
2013,10,15,15,13,13.80
2013,10,15,15,14,13.70
2013,10,15,15,15,13.70
2013,10,15,15,16,13.70
2013,10,15,15,17,13.70
2013,10,15,15,18,13.70
2013,10,15,15,19,13.70
2013,10,15,15,20,13.70
2013,10,15,15,21,13.70
2013,10,15,15,22,13.80
2013,10,15,15,23,13.80
2013,10,15,15,24,13.90
2013,10,15,15,25,14.00
2013,10,15,15,26,14.00
2013,10,15,15,27,14.10
2013,10,15,15,28,14.20
2013,10,15,15,29,14.10
2013,10,15,15,30,14.10
2013,10,15,15,31,14.00
2013,10,15,15,32,14.00
2013,10,15,15,33,14.00
2013,10,15,15,34,14.00
2013,10,15,15,35,14.00
2013,10,15,15,36,13.90
2013,10,15,15,37,13.90
2013,10,15,15,38,13.90
2013,10,15,15,39,13.80
2013,10,15,15,40,13.90
2013,10,15,15,41,13.90
2013,10,15,15,42,13.90
2013,10,15,15,43,13.90
2013,10,15,15,44,14.00
2013,10,15,15,45,14.00
2013,10,15,15,46,14.00
2013,10,15,15,47,14.10
2013,10,15,15,48,14.10
2013,10,15,15,49,14.10
2013,10,15,15,50,14.10
2013,10,15,15,51,14.10
2013,10,15,15,52,14.10
2013,10,15,15,53,14.00
2013,10,15,15,54,14.00
2013,10,15,15,55,13.90
2013,10,15,15,56,13.90
2013,10,15,15,57,13.80
2013,10,15,15,58,13.70
2013,10,15,15,59,13.70
2013,10,15,16,00,13.70
2013,10,15,16,01,13.70
2013,10,15,16,02,13.60
2013,10,15,16,03,13.60
2013,10,15,16,04,13.50
2013,10,15,16,05,13.50
2013,10,15,16,06,13.40
2013,10,15,16,07,13.30
2013,10,15,16,08,13.30
2013,10,15,16,09,13.30
2013,10,15,16,10,13.30
2013,10,15,16,11,13.20
2013,10,15,16,12,13.20
2013,10,15,16,13,13.20
2013,10,15,16,14,13.10
2013,10,15,16,15,13.00
2013,10,15,16,16,13.00
2013,10,15,16,17,13.00
2013,10,15,16,18,12.90
2013,10,15,16,19,12.80
2013,10,15,16,20,12.70
2013,10,15,16,21,12.60
2013,10,15,16,22,12.60
2013,10,15,16,23,12.50
2013,10,15,16,24,12.40
2013,10,15,16,25,12.40
2013,10,15,16,26,12.40
2013,10,15,16,27,12.30
2013,10,15,16,28,12.30
2013,10,15,16,29,12.30
2013,10,15,16,30,12.30
2013,10,15,16,31,12.30
2013,10,15,16,32,12.30
2013,10,15,16,33,12.30
2013,10,15,16,34,12.30
2013,10,15,16,35,12.40
2013,10,15,16,36,12.40
2013,10,15,16,37,12.50
2013,10,15,16,38,12.50
2013,10,15,16,39,12.60
2013,10,15,16,40,12.70
2013,10,15,16,41,12.70
2013,10,15,16,42,12.70
2013,10,15,16,43,12.70
2013,10,15,16,44,12.60
2013,10,15,16,45,12.60
2013,10,15,16,46,12.60
2013,10,15,16,47,12.60
2013,10,15,16,48,12.50
2013,10,15,16,49,12.50
2013,10,15,16,50,12.50
2013,10,15,16,51,12.50
2013,10,15,16,52,12.40
2013,10,15,16,53,12.40
2013,10,15,16,54,12.40
2013,10,15,16,55,12.40
2013,10,15,16,56,12.40
2013,10,15,16,57,12.40
2013,10,15,16,58,12.40
2013,10,15,16,59,12.40
2013,10,15,17,00,12.40
2013,10,15,17,01,12.40
2013,10,15,17,02,12.40
2013,10,15,17,03,12.40
2013,10,15,17,04,12.40
2013,10,15,17,05,12.40
2013,10,15,17,06,12.40
2013,10,15,17,07,12.50
2013,10,15,17,08,12.50
2013,10,15,17,09,12.50
2013,10,15,17,10,12.50
2013,10,15,17,11,12.50
2013,10,15,17,12,12.40
2013,10,15,17,13,12.40
2013,10,15,17,14,12.40
2013,10,15,17,15,12.40
2013,10,15,17,16,12.40
2013,10,15,17,17,12.40
2013,10,15,17,18,12.40
2013,10,15,17,19,12.40
2013,10,15,17,20,12.40
2013,10,15,17,21,12.40
2013,10,15,17,22,12.40
2013,10,15,17,23,12.40
2013,10,15,17,24,12.40
2013,10,15,17,25,12.40
2013,10,15,17,26,12.40
2013,10,15,17,27,12.40
2013,10,15,17,28,12.40
2013,10,15,17,29,12.40
2013,10,15,17,30,12.40
2013,10,15,17,31,12.40
2013,10,15,17,32,12.40
2013,10,15,17,33,12.40
2013,10,15,17,34,12.40
2013,10,15,17,35,12.40
2013,10,15,17,36,12.40
2013,10,15,17,37,12.40
2013,10,15,17,38,12.30
2013,10,15,17,39,12.40
2013,10,15,17,40,12.40
2013,10,15,17,41,12.40
2013,10,15,17,42,12.40
2013,10,15,17,43,12.40
2013,10,15,17,44,12.40
2013,10,15,17,45,12.40
2013,10,15,17,46,12.40